Location: Newark
(13.6797°N, 8.5297°E)
Time: 06:53:36
(UTC+00:00)

Altair - Pass Details

Date: 03 February 2020
Orbit: 1502 x 1682 km, 47.2° (Epoch: 17 February)

Event Time Altitude Azimuth Distance (km) Brightness Sun altitude
Rises 12:25:59 0° 326° (NNW) 4,927 10.0 57.6°
Reaches altitude 10° 12:29:24 10° 333° (NNW) 3,931 9.5 57.3°
Maximum altitude 12:38:57 46° 44° (NE) 2,107 8.5 56.4°
Drops below altitude 10° 12:48:13 10° 115° (ESE) 3,828 9.7 55.3°
Sets 12:51:27 0° 121° (ESE) 4,789 10.1 54.9°
